Year,Month,Day,Hour,Minute,Value (Times are PST for temperature in C)
2015,10,16,00,01,11.60
2015,10,16,00,02,11.60
2015,10,16,00,03,11.60
2015,10,16,00,04,11.60
2015,10,16,00,05,11.60
2015,10,16,00,06,11.60
2015,10,16,00,07,11.60
2015,10,16,00,08,11.60
2015,10,16,00,09,11.60
2015,10,16,00,10,11.60
2015,10,16,00,11,11.60
2015,10,16,00,13,11.60
2015,10,16,00,14,11.40
2015,10,16,00,16,11.40
2015,10,16,00,17,11.40
2015,10,16,00,18,11.60
2015,10,16,00,19,11.60
2015,10,16,00,21,11.60
2015,10,16,00,22,11.60
2015,10,16,00,23,11.60
2015,10,16,00,24,11.60
2015,10,16,00,26,11.60
2015,10,16,00,27,11.60
2015,10,16,00,28,11.60
2015,10,16,00,29,11.60
2015,10,16,00,31,11.60
2015,10,16,00,32,11.60
2015,10,16,00,33,11.60
2015,10,16,00,34,11.40
2015,10,16,00,36,11.40
2015,10,16,00,37,11.40
2015,10,16,00,38,11.40
2015,10,16,00,39,11.40
2015,10,16,00,41,11.60
2015,10,16,00,42,11.60
2015,10,16,00,43,11.60
2015,10,16,00,44,11.60
2015,10,16,00,46,11.60
2015,10,16,00,47,11.60
2015,10,16,00,48,11.60
2015,10,16,00,49,11.60
2015,10,16,00,51,11.60
2015,10,16,00,52,11.60
2015,10,16,00,53,11.60
2015,10,16,00,54,11.60
2015,10,16,00,56,11.60
2015,10,16,00,57,11.60
2015,10,16,00,58,11.60
2015,10,16,00,59,11.60
2015,10,16,01,01,11.60
2015,10,16,01,02,11.40
2015,10,16,01,03,11.40
2015,10,16,01,04,11.40
2015,10,16,01,06,11.40
2015,10,16,01,07,11.40
2015,10,16,01,08,11.40
2015,10,16,01,09,11.40
2015,10,16,01,11,11.40
2015,10,16,01,12,11.40
2015,10,16,01,13,11.40
2015,10,16,01,14,11.40
2015,10,16,01,16,11.40
2015,10,16,01,17,11.40
2015,10,16,01,18,11.30
2015,10,16,01,19,11.30
2015,10,16,01,21,11.30
2015,10,16,01,22,11.30
2015,10,16,01,23,11.30
2015,10,16,01,24,11.30
2015,10,16,01,26,11.30
2015,10,16,01,27,11.30
2015,10,16,01,28,11.30
2015,10,16,01,29,11.30
2015,10,16,01,31,11.30
2015,10,16,01,32,11.30
2015,10,16,01,33,11.30
2015,10,16,01,34,11.30
2015,10,16,01,36,11.30
2015,10,16,01,37,11.30
2015,10,16,01,38,11.30
2015,10,16,01,39,11.30
2015,10,16,01,41,11.30
2015,10,16,01,42,11.30
2015,10,16,01,43,11.30
2015,10,16,01,44,11.30
2015,10,16,01,46,11.30
2015,10,16,01,47,11.30
2015,10,16,01,48,11.30
2015,10,16,01,49,11.30
2015,10,16,01,51,11.30
2015,10,16,01,52,11.30
2015,10,16,01,53,11.30
2015,10,16,01,54,11.30
2015,10,16,01,56,11.30
2015,10,16,01,57,11.20
2015,10,16,01,58,11.20
2015,10,16,01,59,11.20
2015,10,16,02,01,11.20
2015,10,16,02,02,11.20
2015,10,16,02,03,11.20
2015,10,16,02,04,11.20
2015,10,16,02,06,11.20
2015,10,16,02,07,11.20
2015,10,16,02,08,11.20
2015,10,16,02,09,11.20
2015,10,16,02,11,11.20
2015,10,16,02,12,11.20
2015,10,16,02,13,11.20
2015,10,16,02,14,11.20
2015,10,16,02,16,11.20
2015,10,16,02,17,11.20
2015,10,16,02,18,11.20
2015,10,16,02,19,11.20
2015,10,16,02,21,11.20
2015,10,16,02,22,11.20
2015,10,16,02,23,11.20
2015,10,16,02,24,11.20
2015,10,16,02,26,11.10
2015,10,16,02,27,11.10
2015,10,16,02,28,11.10
2015,10,16,02,29,11.10
2015,10,16,02,31,11.10
2015,10,16,02,32,11.20
2015,10,16,02,33,11.20
2015,10,16,02,34,11.20
2015,10,16,02,35,11.10
2015,10,16,02,36,11.10
2015,10,16,02,37,11.10
2015,10,16,02,38,11.10
2015,10,16,02,39,11.10
2015,10,16,02,40,11.10
2015,10,16,02,41,11.10
2015,10,16,02,42,11.10
2015,10,16,02,43,11.10
2015,10,16,02,44,11.10
2015,10,16,02,45,11.10
2015,10,16,02,46,11.10
2015,10,16,02,47,11.10
2015,10,16,02,48,11.10
2015,10,16,02,49,11.10
2015,10,16,02,50,11.10
2015,10,16,02,51,11.10
2015,10,16,02,52,11.10
2015,10,16,02,53,11.10
2015,10,16,02,54,11.10
2015,10,16,02,55,11.10
2015,10,16,02,56,11.10
2015,10,16,02,57,11.10
2015,10,16,02,58,11.10
2015,10,16,02,59,11.10
2015,10,16,03,00,11.10
2015,10,16,03,01,11.10
2015,10,16,03,03,11.10
2015,10,16,03,04,11.10
2015,10,16,03,06,11.10
2015,10,16,03,07,11.10
2015,10,16,03,08,11.10
2015,10,16,03,09,11.10
2015,10,16,03,11,11.10
2015,10,16,03,12,11.10
2015,10,16,03,13,11.10
2015,10,16,03,14,11.10
2015,10,16,03,16,11.10
2015,10,16,03,17,11.10
2015,10,16,03,18,11.10
2015,10,16,03,19,10.90
2015,10,16,03,21,10.90
2015,10,16,03,22,10.90
2015,10,16,03,23,10.90
2015,10,16,03,24,10.90
2015,10,16,03,26,10.90
2015,10,16,03,27,10.90
2015,10,16,03,28,10.90
2015,10,16,03,29,10.90
2015,10,16,03,31,10.90
2015,10,16,03,32,10.90
2015,10,16,03,33,10.90
2015,10,16,03,34,10.90
2015,10,16,03,36,10.90
2015,10,16,03,37,10.90
2015,10,16,03,38,10.90
2015,10,16,03,39,10.90
2015,10,16,03,41,10.90
2015,10,16,03,42,10.90
2015,10,16,03,43,10.90
2015,10,16,03,44,10.90
2015,10,16,03,46,10.90
2015,10,16,03,47,10.90
2015,10,16,03,48,10.90
2015,10,16,03,49,10.90
2015,10,16,03,51,10.90
2015,10,16,03,52,10.90
2015,10,16,03,53,10.90
2015,10,16,03,54,10.90
2015,10,16,03,56,10.90
2015,10,16,03,57,10.90
2015,10,16,03,58,10.90
2015,10,16,03,59,10.90
2015,10,16,04,01,10.90
2015,10,16,04,02,10.90
2015,10,16,04,03,10.90
2015,10,16,04,04,10.90
2015,10,16,04,06,10.90
2015,10,16,04,07,10.90
2015,10,16,04,08,10.90
2015,10,16,04,09,10.90
2015,10,16,04,11,10.90
2015,10,16,04,12,10.90
2015,10,16,04,13,10.90
2015,10,16,05,24,11.10
2015,10,16,05,25,11.10
2015,10,16,05,26,11.10
2015,10,16,05,27,11.10
2015,10,16,05,29,11.10
2015,10,16,05,31,11.10
2015,10,16,05,32,11.10
2015,10,16,05,33,11.10
2015,10,16,05,34,11.10
2015,10,16,05,36,10.90
2015,10,16,05,37,10.90
2015,10,16,05,38,10.90
2015,10,16,05,39,10.90
2015,10,16,05,41,10.90
2015,10,16,05,42,10.90
2015,10,16,05,43,10.90
2015,10,16,05,44,10.90
2015,10,16,05,46,10.90
2015,10,16,05,47,10.90
2015,10,16,05,48,10.90
2015,10,16,05,49,10.90
2015,10,16,05,51,10.90
2015,10,16,05,52,10.90
2015,10,16,05,53,10.90
2015,10,16,05,54,10.90
2015,10,16,05,56,10.90
2015,10,16,05,57,10.90
2015,10,16,05,58,10.90
2015,10,16,05,59,10.90
2015,10,16,06,01,10.90
2015,10,16,06,02,10.90
2015,10,16,06,03,10.90
2015,10,16,06,04,10.90
2015,10,16,06,06,10.90
2015,10,16,06,07,10.90
2015,10,16,06,08,10.90
2015,10,16,06,09,10.90
2015,10,16,06,11,10.90
2015,10,16,06,12,10.90
2015,10,16,06,13,10.90
2015,10,16,06,14,10.90
2015,10,16,06,16,10.90
2015,10,16,06,17,10.90
2015,10,16,06,18,10.90
2015,10,16,06,19,10.90
2015,10,16,06,21,10.80
2015,10,16,06,22,10.80
2015,10,16,06,23,10.80
2015,10,16,06,24,10.80
2015,10,16,06,26,10.80
2015,10,16,06,27,10.80
2015,10,16,06,28,10.80
2015,10,16,06,29,10.80
2015,10,16,06,31,10.70
2015,10,16,06,32,10.70
2015,10,16,06,33,10.70
2015,10,16,06,34,10.70
2015,10,16,06,36,10.70
2015,10,16,06,37,10.70
2015,10,16,06,38,10.70
2015,10,16,06,39,10.70
2015,10,16,06,41,10.80
2015,10,16,06,42,10.80
2015,10,16,06,43,10.80
2015,10,16,06,44,10.80
2015,10,16,06,46,10.80
2015,10,16,06,47,10.80
2015,10,16,06,48,10.80
2015,10,16,06,49,10.80
2015,10,16,06,51,10.70
2015,10,16,06,52,10.70
2015,10,16,06,53,10.70
2015,10,16,06,54,10.70
2015,10,16,06,56,10.70
2015,10,16,06,57,10.70
2015,10,16,06,58,10.70
2015,10,16,06,59,10.60
2015,10,16,07,01,10.60
2015,10,16,07,02,10.60
2015,10,16,07,03,10.60
2015,10,16,07,04,10.60
2015,10,16,07,06,10.60
2015,10,16,07,07,10.60
2015,10,16,07,08,10.60
2015,10,16,07,09,10.60
2015,10,16,07,11,10.60
2015,10,16,07,12,10.60
2015,10,16,07,13,10.60
2015,10,16,07,14,10.60
2015,10,16,07,16,10.60
2015,10,16,07,17,10.60
2015,10,16,07,18,10.60
2015,10,16,07,19,10.60
2015,10,16,07,21,10.60
2015,10,16,07,22,10.60
2015,10,16,07,23,10.60
2015,10,16,07,24,10.60
2015,10,16,07,26,10.60
2015,10,16,07,27,10.60
2015,10,16,07,28,10.60
2015,10,16,07,29,10.60
2015,10,16,07,31,10.60
2015,10,16,07,32,10.60
2015,10,16,07,33,10.60
2015,10,16,07,34,10.60
2015,10,16,07,35,10.60
2015,10,16,07,36,10.60
2015,10,16,07,37,10.60
2015,10,16,07,38,10.60
2015,10,16,07,39,10.60
2015,10,16,07,40,10.60
2015,10,16,07,41,10.60
2015,10,16,07,42,10.60
2015,10,16,07,43,10.60
2015,10,16,07,44,10.60
2015,10,16,07,46,10.60
2015,10,16,07,47,10.70
2015,10,16,07,48,10.70
2015,10,16,07,49,10.70
2015,10,16,07,50,10.70
2015,10,16,07,51,10.70
2015,10,16,07,52,10.70
2015,10,16,07,53,10.70
2015,10,16,07,54,10.70
2015,10,16,07,55,10.80
2015,10,16,07,56,10.80
2015,10,16,07,57,10.80
2015,10,16,07,58,10.80
2015,10,16,07,59,10.90
2015,10,16,08,00,10.90
2015,10,16,08,01,10.90
2015,10,16,08,02,10.90
2015,10,16,08,04,10.90
2015,10,16,08,06,10.80
2015,10,16,08,07,10.80
2015,10,16,08,08,10.80
2015,10,16,08,09,10.80
2015,10,16,08,11,10.80
2015,10,16,08,12,10.80
2015,10,16,08,13,10.80
2015,10,16,08,14,10.80
2015,10,16,08,16,10.80
2015,10,16,08,17,10.80
2015,10,16,08,18,10.90
2015,10,16,08,19,10.90
2015,10,16,08,21,10.90
2015,10,16,08,22,10.90
2015,10,16,08,23,10.90
2015,10,16,08,24,10.90
2015,10,16,08,26,10.90
2015,10,16,08,27,10.90
2015,10,16,08,28,11.10
2015,10,16,08,29,11.10
2015,10,16,08,31,11.10
2015,10,16,08,32,11.10
2015,10,16,08,33,11.10
2015,10,16,08,34,11.10
2015,10,16,08,36,11.10
2015,10,16,08,37,11.20
2015,10,16,08,38,11.20
2015,10,16,08,39,11.20
2015,10,16,08,41,11.30
2015,10,16,08,42,11.30
2015,10,16,08,43,11.30
2015,10,16,08,44,11.30
2015,10,16,08,46,11.30
2015,10,16,08,47,11.30
2015,10,16,08,48,11.30
2015,10,16,08,49,11.30
2015,10,16,08,51,11.30
2015,10,16,08,52,11.30
2015,10,16,08,53,11.30
2015,10,16,08,54,11.40
2015,10,16,08,56,11.40
2015,10,16,08,57,11.40
2015,10,16,08,58,11.40
2015,10,16,08,59,11.40
2015,10,16,09,01,11.40
2015,10,16,09,02,11.40
2015,10,16,09,03,11.40
2015,10,16,09,04,11.40
2015,10,16,09,06,11.40
2015,10,16,09,07,11.40
2015,10,16,09,08,11.40
2015,10,16,09,09,11.40
2015,10,16,09,11,11.40
2015,10,16,09,12,11.40
2015,10,16,09,13,11.40
2015,10,16,09,14,11.40
2015,10,16,09,16,11.40
2015,10,16,09,17,11.40
2015,10,16,09,18,11.40
2015,10,16,09,19,11.40
2015,10,16,09,21,11.40
2015,10,16,09,22,11.40
2015,10,16,09,23,11.40
2015,10,16,09,24,11.40
2015,10,16,09,26,11.40
2015,10,16,09,27,11.40
2015,10,16,09,28,11.60
2015,10,16,09,29,11.60
2015,10,16,09,31,11.60
2015,10,16,09,32,11.60
2015,10,16,09,33,11.60
2015,10,16,09,34,11.60
2015,10,16,09,36,11.70
2015,10,16,09,37,11.70
2015,10,16,09,38,11.70
2015,10,16,09,39,11.70
2015,10,16,09,41,11.70
2015,10,16,09,42,11.70
2015,10,16,09,43,11.70
2015,10,16,09,44,11.80
2015,10,16,09,46,11.80
2015,10,16,09,47,11.80
2015,10,16,09,48,11.80
2015,10,16,09,49,11.80
2015,10,16,09,51,11.80
2015,10,16,09,52,11.80
2015,10,16,09,53,11.80
2015,10,16,09,54,11.80
2015,10,16,09,56,11.80
2015,10,16,09,57,11.80
2015,10,16,09,58,11.80
2015,10,16,09,59,11.80
2015,10,16,10,01,11.80
2015,10,16,10,02,11.90
2015,10,16,10,03,11.90
2015,10,16,10,04,11.90
2015,10,16,10,06,12.00
2015,10,16,10,07,12.00
2015,10,16,10,08,12.00
2015,10,16,10,09,12.10
2015,10,16,10,11,12.10
2015,10,16,10,12,12.20
2015,10,16,10,13,12.20
2015,10,16,10,14,12.30
2015,10,16,10,16,12.30
2015,10,16,10,17,12.40
2015,10,16,10,18,12.40
2015,10,16,10,19,12.50
2015,10,16,10,20,12.50
2015,10,16,10,21,12.50
2015,10,16,10,22,12.50
2015,10,16,10,23,12.50
2015,10,16,10,24,12.50
2015,10,16,10,25,12.50
2015,10,16,10,26,12.50
2015,10,16,10,27,12.40
2015,10,16,10,28,12.40
2015,10,16,10,29,12.30
2015,10,16,10,30,12.30
2015,10,16,10,31,12.30
2015,10,16,10,32,12.30
2015,10,16,10,33,12.30
2015,10,16,10,34,12.30
2015,10,16,10,35,12.30
2015,10,16,10,36,12.30
2015,10,16,10,37,12.30
2015,10,16,10,38,12.30
2015,10,16,10,39,12.40
2015,10,16,10,40,12.40
2015,10,16,10,41,12.40
2015,10,16,10,42,12.40
2015,10,16,10,43,12.40
2015,10,16,10,44,12.40
2015,10,16,10,45,12.40
2015,10,16,10,46,12.40
2015,10,16,10,47,12.40
2015,10,16,10,48,12.40
2015,10,16,10,49,12.40
2015,10,16,10,50,12.50
2015,10,16,10,51,12.50
2015,10,16,10,52,12.50
2015,10,16,10,54,12.60
2015,10,16,10,56,12.60
2015,10,16,10,57,12.60
2015,10,16,10,58,12.70
2015,10,16,10,59,12.70
2015,10,16,11,01,12.70
2015,10,16,11,02,12.80
2015,10,16,11,03,12.80
2015,10,16,11,04,12.80
2015,10,16,11,06,12.80
2015,10,16,11,07,12.90
2015,10,16,11,08,12.90
2015,10,16,11,09,13.00
2015,10,16,11,11,13.20
2015,10,16,11,12,13.20
2015,10,16,11,13,13.30
2015,10,16,11,14,13.30
2015,10,16,11,16,13.50
2015,10,16,11,17,13.60
2015,10,16,11,18,13.70
2015,10,16,11,19,13.70
2015,10,16,11,21,13.80
2015,10,16,11,22,13.90
2015,10,16,11,23,14.00
2015,10,16,11,24,14.00
2015,10,16,11,26,14.10
2015,10,16,11,27,14.10
2015,10,16,11,28,14.10
2015,10,16,11,29,14.10
2015,10,16,11,31,14.00
2015,10,16,11,32,14.00
2015,10,16,11,33,14.00
2015,10,16,11,34,14.00
2015,10,16,11,36,14.00
2015,10,16,11,37,14.00
2015,10,16,11,38,14.00
2015,10,16,11,39,14.00
2015,10,16,11,41,13.90
2015,10,16,11,42,13.90
2015,10,16,11,43,13.90
2015,10,16,11,44,14.00
2015,10,16,11,46,14.00
2015,10,16,11,47,14.10
2015,10,16,11,48,14.10
2015,10,16,11,49,14.20
2015,10,16,11,51,14.20
2015,10,16,11,52,14.20
2015,10,16,11,53,14.20
2015,10,16,11,54,14.20
2015,10,16,11,56,14.20
2015,10,16,11,57,14.20
2015,10,16,11,58,14.20
2015,10,16,11,59,14.20
2015,10,16,12,01,14.20
2015,10,16,12,02,14.20
2015,10,16,12,03,14.20
2015,10,16,12,04,14.20
2015,10,16,12,06,14.10
2015,10,16,12,07,14.10
2015,10,16,12,08,14.10
2015,10,16,12,09,14.10
2015,10,16,12,11,14.10
2015,10,16,12,12,14.10
2015,10,16,12,13,14.10
2015,10,16,12,14,14.10
2015,10,16,12,16,14.20
2015,10,16,12,17,14.20
2015,10,16,12,18,14.20
2015,10,16,12,19,14.30
2015,10,16,12,21,14.40
2015,10,16,12,22,14.50
2015,10,16,12,23,14.60
2015,10,16,12,24,14.70
2015,10,16,12,26,14.80
2015,10,16,12,27,14.80
2015,10,16,12,28,14.80
2015,10,16,12,29,14.80
2015,10,16,12,31,14.80
2015,10,16,12,32,14.80
2015,10,16,12,33,14.80
2015,10,16,12,34,14.90
2015,10,16,12,36,14.90
2015,10,16,12,37,14.90
2015,10,16,12,38,14.90
2015,10,16,12,39,14.90
2015,10,16,12,41,15.00
2015,10,16,12,43,15.00
2015,10,16,12,44,15.00
2015,10,16,12,46,15.10
2015,10,16,12,47,15.10
2015,10,16,12,48,15.20
2015,10,16,12,49,15.20
2015,10,16,12,50,15.20
2015,10,16,12,51,15.30
2015,10,16,12,52,15.30
2015,10,16,12,53,15.30
2015,10,16,12,54,15.30
2015,10,16,12,56,15.30
2015,10,16,12,57,15.30
2015,10,16,12,58,15.30
2015,10,16,12,59,15.30
2015,10,16,13,00,15.30
2015,10,16,13,02,15.30
2015,10,16,13,03,15.30
2015,10,16,13,04,15.30
2015,10,16,13,05,15.30
2015,10,16,13,06,15.30
2015,10,16,13,07,15.30
2015,10,16,13,08,15.30
2015,10,16,13,09,15.30
2015,10,16,13,10,15.30
2015,10,16,13,11,15.30
2015,10,16,13,12,15.30
2015,10,16,13,13,15.30
2015,10,16,13,14,15.30
2015,10,16,13,15,15.30
2015,10,16,13,17,15.20
2015,10,16,13,18,15.20
2015,10,16,13,19,15.20
2015,10,16,13,21,15.30
2015,10,16,13,22,15.30
2015,10,16,13,23,15.30
2015,10,16,13,24,15.30
2015,10,16,13,26,15.40
2015,10,16,13,27,15.40
2015,10,16,13,28,15.50
2015,10,16,13,29,15.50
2015,10,16,13,31,15.60
2015,10,16,13,32,15.60
2015,10,16,13,33,15.60
2015,10,16,13,34,15.70
2015,10,16,13,36,15.70
2015,10,16,13,37,15.70
2015,10,16,13,38,15.80
2015,10,16,13,39,15.80
2015,10,16,13,41,15.80
2015,10,16,13,42,15.80
2015,10,16,13,43,15.80
2015,10,16,13,44,15.80
2015,10,16,13,46,15.80
2015,10,16,13,47,15.90
2015,10,16,13,48,15.90
2015,10,16,13,49,15.90
2015,10,16,13,51,15.90
2015,10,16,13,52,16.10
2015,10,16,13,53,16.10
2015,10,16,13,54,16.10
2015,10,16,13,56,16.10
2015,10,16,13,57,16.10
2015,10,16,13,58,16.10
2015,10,16,13,59,16.10
2015,10,16,14,01,16.10
2015,10,16,14,02,16.10
2015,10,16,14,03,16.10
2015,10,16,14,04,16.10
2015,10,16,14,06,16.10
2015,10,16,14,07,16.10
2015,10,16,14,08,16.10
2015,10,16,14,09,16.10
2015,10,16,14,11,16.10
2015,10,16,14,12,15.90
2015,10,16,14,13,15.90
2015,10,16,14,14,15.90
2015,10,16,14,16,15.90
2015,10,16,14,17,15.80
2015,10,16,14,18,15.80
2015,10,16,14,19,15.80
2015,10,16,14,21,15.80
2015,10,16,14,22,15.80
2015,10,16,14,23,15.70
2015,10,16,14,24,15.70
2015,10,16,14,26,15.60
2015,10,16,14,27,15.60
2015,10,16,14,28,15.60
2015,10,16,14,29,15.60
2015,10,16,14,31,15.60
2015,10,16,14,32,15.60
2015,10,16,14,33,15.60
2015,10,16,14,34,15.60
2015,10,16,14,36,15.60
2015,10,16,14,37,15.60
2015,10,16,14,38,15.60
2015,10,16,14,39,15.60
2015,10,16,14,40,15.60
2015,10,16,14,41,15.60
2015,10,16,14,42,15.70
2015,10,16,14,43,15.70
2015,10,16,14,44,15.70
2015,10,16,14,45,15.80
2015,10,16,14,46,15.80
2015,10,16,14,47,15.80
2015,10,16,14,48,15.80
2015,10,16,14,49,15.80
2015,10,16,14,50,15.90
2015,10,16,14,51,15.90
2015,10,16,14,52,16.10
2015,10,16,14,53,16.10
2015,10,16,14,54,16.10
2015,10,16,14,55,16.10
2015,10,16,14,56,16.10
2015,10,16,14,57,16.10
2015,10,16,14,59,16.10
2015,10,16,15,01,16.10
2015,10,16,15,02,16.10
2015,10,16,15,03,16.10
2015,10,16,15,04,16.10
2015,10,16,15,06,16.10
2015,10,16,15,07,16.10
2015,10,16,15,08,16.10
2015,10,16,15,09,16.10
2015,10,16,15,11,16.10
2015,10,16,15,12,16.20
2015,10,16,15,13,16.20
2015,10,16,15,14,16.20
2015,10,16,15,16,16.30
2015,10,16,15,17,16.30
2015,10,16,15,18,16.30
2015,10,16,15,19,16.30
2015,10,16,15,21,16.40
2015,10,16,15,22,16.40
2015,10,16,15,23,16.40
2015,10,16,15,24,16.40
2015,10,16,15,26,16.40
2015,10,16,15,27,16.40
2015,10,16,15,28,16.40
2015,10,16,15,29,16.60
2015,10,16,15,31,16.40
2015,10,16,15,32,16.40
2015,10,16,15,33,16.40
2015,10,16,15,34,16.40
2015,10,16,15,36,16.40
2015,10,16,15,37,16.40
2015,10,16,15,38,16.40
2015,10,16,15,39,16.40
2015,10,16,15,41,16.40
2015,10,16,15,42,16.40
2015,10,16,15,43,16.40
2015,10,16,15,44,16.40
2015,10,16,15,46,16.40
2015,10,16,15,47,16.40
2015,10,16,15,48,16.40
2015,10,16,15,49,16.40
2015,10,16,15,51,16.40
2015,10,16,15,52,16.40
2015,10,16,15,53,16.40
2015,10,16,15,54,16.40
2015,10,16,15,56,16.40
2015,10,16,15,57,16.40
2015,10,16,15,58,16.40
2015,10,16,15,59,16.40
2015,10,16,16,01,16.40
2015,10,16,16,02,16.40
2015,10,16,16,03,16.40
2015,10,16,16,04,16.40
2015,10,16,16,06,16.40
2015,10,16,16,07,16.40
2015,10,16,16,08,16.40
2015,10,16,16,09,16.40
2015,10,16,16,11,16.40
2015,10,16,16,12,16.60
2015,10,16,16,13,16.60
2015,10,16,16,14,16.60
2015,10,16,16,16,16.60
2015,10,16,16,17,16.60
2015,10,16,16,18,16.60
2015,10,16,16,19,16.60
2015,10,16,16,21,16.70
2015,10,16,16,22,16.70
2015,10,16,16,23,16.70
2015,10,16,16,24,16.70
2015,10,16,16,26,16.70
2015,10,16,16,27,16.70
2015,10,16,16,28,16.70
2015,10,16,16,29,16.70
2015,10,16,16,30,16.70
2015,10,16,16,31,16.70
2015,10,16,16,32,16.70
2015,10,16,16,33,16.70
2015,10,16,16,34,16.70
2015,10,16,16,35,16.70
2015,10,16,16,36,16.70
2015,10,16,16,37,16.70
2015,10,16,16,38,16.70
2015,10,16,16,39,16.70
2015,10,16,16,40,16.80
2015,10,16,16,41,16.80
2015,10,16,16,42,16.80
2015,10,16,16,43,16.80
2015,10,16,16,44,16.80
2015,10,16,16,45,16.80
2015,10,16,16,46,16.80
2015,10,16,16,47,16.80
2015,10,16,16,48,16.80
2015,10,16,16,49,16.70
2015,10,16,16,50,16.70
2015,10,16,16,51,16.70
2015,10,16,16,53,16.70
2015,10,16,16,54,16.70
2015,10,16,16,56,16.70
2015,10,16,16,57,16.70
2015,10,16,16,58,16.70
2015,10,16,16,59,16.70
2015,10,16,17,01,16.60
2015,10,16,17,02,16.60
2015,10,16,17,03,16.40
2015,10,16,17,04,16.40
2015,10,16,17,06,16.40
2015,10,16,17,07,16.40
2015,10,16,17,08,16.40
2015,10,16,17,09,16.40
2015,10,16,17,11,16.30
2015,10,16,17,12,16.30
2015,10,16,17,13,16.30
2015,10,16,17,14,16.30
2015,10,16,17,16,16.30
2015,10,16,17,17,16.30
2015,10,16,17,18,16.30
2015,10,16,17,19,16.30
2015,10,16,17,21,16.20
2015,10,16,17,22,16.20
2015,10,16,17,23,16.20
2015,10,16,17,24,16.20
2015,10,16,17,26,16.20
2015,10,16,17,27,16.10
2015,10,16,17,28,16.10
2015,10,16,17,29,16.10
2015,10,16,17,31,15.90
2015,10,16,17,32,15.90
2015,10,16,17,33,15.90
2015,10,16,17,34,15.80
2015,10,16,17,36,15.80
2015,10,16,17,37,15.80
2015,10,16,17,38,15.70
2015,10,16,17,39,15.70
2015,10,16,17,41,15.60
2015,10,16,17,42,15.60
2015,10,16,17,43,15.50
2015,10,16,17,44,15.50
2015,10,16,17,46,15.40
2015,10,16,17,47,15.40
2015,10,16,17,48,15.40
2015,10,16,17,49,15.40
2015,10,16,17,51,15.30
2015,10,16,17,52,15.30
2015,10,16,17,53,15.30
2015,10,16,17,54,15.30
2015,10,16,17,56,15.20
2015,10,16,17,57,15.20
2015,10,16,17,58,15.10
2015,10,16,17,59,15.10
2015,10,16,18,01,15.00
2015,10,16,18,02,15.00
2015,10,16,18,03,15.00
2015,10,16,18,04,15.00
2015,10,16,18,06,14.90
2015,10,16,18,07,14.90
2015,10,16,18,08,14.90
2015,10,16,18,09,14.90
2015,10,16,18,11,14.90
2015,10,16,18,12,14.90
2015,10,16,18,13,14.90
2015,10,16,18,14,14.80
2015,10,16,18,16,14.80
2015,10,16,18,17,14.80
2015,10,16,18,18,14.80
2015,10,16,18,19,14.80
2015,10,16,18,21,14.80
2015,10,16,18,22,14.80
2015,10,16,18,23,14.80
2015,10,16,18,24,14.80
2015,10,16,18,26,14.80
2015,10,16,18,27,14.80
2015,10,16,18,28,14.80
2015,10,16,18,29,14.90
2015,10,16,18,31,14.90
2015,10,16,18,32,14.90
2015,10,16,18,33,14.90
2015,10,16,18,34,14.90
2015,10,16,18,36,14.90
2015,10,16,18,37,14.90
2015,10,16,18,38,14.90
2015,10,16,18,39,14.90
2015,10,16,18,41,15.00
2015,10,16,18,42,15.00
2015,10,16,18,43,15.00
2015,10,16,18,44,15.00
2015,10,16,18,46,15.00
2015,10,16,18,47,15.10
2015,10,16,18,48,15.10
2015,10,16,18,49,15.10
2015,10,16,18,51,15.20
2015,10,16,18,52,15.20
2015,10,16,18,53,15.20
2015,10,16,18,54,15.20
2015,10,16,18,55,15.20
2015,10,16,18,56,15.20
2015,10,16,18,57,15.20
2015,10,16,18,58,15.10
2015,10,16,18,59,15.10
2015,10,16,19,01,15.10
2015,10,16,19,02,15.10
2015,10,16,19,03,15.10
2015,10,16,19,04,15.10
2015,10,16,19,06,15.10
2015,10,16,19,07,15.10
2015,10,16,19,08,15.10
2015,10,16,19,09,15.00
2015,10,16,19,10,15.00
2015,10,16,19,11,15.00
2015,10,16,19,12,15.00
2015,10,16,19,13,15.00
2015,10,16,19,14,15.00
2015,10,16,19,15,15.00
2015,10,16,19,16,14.90
2015,10,16,19,17,14.90
2015,10,16,19,18,14.90
2015,10,16,19,19,14.90
2015,10,16,19,20,14.80
2015,10,16,19,21,14.80
2015,10,16,19,22,14.80
2015,10,16,19,23,14.80
2015,10,16,19,24,14.80
2015,10,16,19,25,14.70
2015,10,16,19,26,14.70
2015,10,16,19,27,14.70
2015,10,16,19,28,14.60
2015,10,16,19,29,14.60
2015,10,16,19,30,14.60
2015,10,16,19,31,14.60
2015,10,16,19,32,14.50
2015,10,16,19,33,14.50
2015,10,16,19,34,14.50
2015,10,16,19,35,14.50
2015,10,16,19,36,14.50
2015,10,16,19,38,14.50
2015,10,16,19,39,14.50
2015,10,16,19,41,14.50
2015,10,16,19,42,14.50
2015,10,16,19,43,14.50
2015,10,16,19,44,14.50
2015,10,16,19,46,14.40
2015,10,16,19,47,14.40
2015,10,16,19,48,14.40
2015,10,16,19,49,14.50
2015,10,16,19,51,14.50
2015,10,16,19,52,14.60
2015,10,16,19,53,14.60
2015,10,16,19,54,14.60
2015,10,16,19,56,14.70
2015,10,16,19,57,14.70
2015,10,16,19,58,14.70
2015,10,16,19,59,14.70
2015,10,16,20,01,14.80
2015,10,16,20,02,14.80
2015,10,16,20,03,14.80
2015,10,16,20,04,14.80
2015,10,16,20,06,14.80
2015,10,16,20,07,14.80
2015,10,16,20,08,14.80
2015,10,16,20,09,14.80
2015,10,16,20,11,14.80
2015,10,16,20,12,14.80
2015,10,16,20,13,14.80
2015,10,16,20,14,14.80
2015,10,16,20,16,14.80
2015,10,16,20,17,14.80
2015,10,16,20,18,14.80
2015,10,16,20,19,14.80
2015,10,16,20,21,14.80
2015,10,16,20,22,14.80
2015,10,16,20,23,14.80
2015,10,16,20,24,14.80
2015,10,16,20,26,14.80
2015,10,16,20,27,14.80
2015,10,16,20,28,14.80
2015,10,16,20,29,14.80
2015,10,16,20,31,14.90
2015,10,16,20,32,14.90
2015,10,16,20,33,14.90
2015,10,16,20,34,14.90
2015,10,16,20,36,15.00
2015,10,16,20,37,15.00
2015,10,16,20,38,15.00
2015,10,16,20,39,15.10
2015,10,16,20,41,15.10
2015,10,16,20,42,15.10
2015,10,16,20,43,15.10
2015,10,16,20,44,15.10
2015,10,16,20,46,15.10
2015,10,16,20,47,15.10
2015,10,16,20,48,15.10
2015,10,16,20,49,15.10
2015,10,16,20,51,15.00
2015,10,16,20,52,14.90
2015,10,16,20,53,14.80
2015,10,16,20,54,14.80
2015,10,16,20,56,14.70
2015,10,16,20,57,14.60
2015,10,16,20,58,14.50
2015,10,16,20,59,14.40
2015,10,16,21,01,14.20
2015,10,16,21,02,14.20
2015,10,16,21,03,14.10
2015,10,16,21,04,14.10
2015,10,16,21,06,13.90
2015,10,16,21,07,13.80
2015,10,16,21,08,13.80
2015,10,16,21,09,13.70
2015,10,16,21,11,13.70
2015,10,16,21,12,13.60
2015,10,16,21,13,13.60
2015,10,16,21,14,13.50
2015,10,16,21,16,13.50
2015,10,16,21,17,13.40
2015,10,16,21,18,13.40
2015,10,16,21,19,13.40
2015,10,16,21,21,13.30
2015,10,16,21,22,13.30
2015,10,16,21,23,13.30
2015,10,16,21,24,13.30
2015,10,16,21,26,13.30
2015,10,16,21,27,13.20
2015,10,16,21,28,13.20
2015,10,16,21,29,13.20
2015,10,16,21,31,13.10
2015,10,16,21,32,13.10
2015,10,16,21,33,13.00
2015,10,16,21,34,13.00
2015,10,16,21,36,12.90
2015,10,16,21,37,12.90
2015,10,16,21,38,12.90
2015,10,16,21,39,12.80
2015,10,16,21,41,12.80
2015,10,16,21,42,12.80
2015,10,16,21,43,12.80
2015,10,16,21,44,12.80
2015,10,16,21,46,12.80
2015,10,16,21,47,12.80
2015,10,16,21,48,12.80
2015,10,16,21,49,12.80
2015,10,16,21,51,12.80
2015,10,16,21,52,12.80
2015,10,16,21,53,12.80
2015,10,16,21,54,12.80
2015,10,16,21,55,12.80
2015,10,16,21,56,12.80
2015,10,16,21,57,12.80
2015,10,16,21,58,12.80
2015,10,16,21,59,12.80
2015,10,16,22,00,12.80
2015,10,16,22,01,12.80
2015,10,16,22,02,12.80
2015,10,16,22,03,12.80
2015,10,16,22,04,12.80
2015,10,16,22,05,12.80
2015,10,16,22,06,12.80
2015,10,16,22,07,12.80